AAL929 KMIA-SBGR

Flight info

Callsign AAL929
Flight time N/A
Altitude 37000
Route KLADA2 BITAC Y290 HAGIT Y421 HARBG L452 MUNOZ DCT ANADA UG449 PELMA/N0471F390 UG449 KORTO/N0473F380 DCT SUMVA/N0473F390 UP535 ETETI DCT SOBID DCT PAMEN UP535 MOMSO UZ24 MULUV/N0470F400 UZ38 VUNOX
Aircraft A333/H-SDE3GHIJ2J3J5M1RVWXY/LB2D1

Departure

Time 2026-05-05 14:00
Airport Miami International Airport (KMIA)

Arrival

Time N/A
Airport São Paulo/Guarulhos–Governor André Franco Montoro International Airport (SBGR)
Time Latitude Longitude Altitude Speed Heading
2026-05-05 13:28 25.79896 -80.27395 26 ft 0 kts 132°
2026-05-05 13:47 25.79896 -80.27396 24 ft 2 kts 132°
2026-05-05 13:47 25.79914 -80.27417 27 ft 4 kts 132°
2026-05-05 13:47 25.79931 -80.27438 27 ft 2 kts 132°
2026-05-05 13:48 25.79949 -80.27456 26 ft 4 kts 156°
2026-05-05 13:48 25.79972 -80.27459 25 ft 5 kts 206°
2026-05-05 13:48 25.79989 -80.27441 27 ft 5 kts 259°
2026-05-05 13:48 25.79991 -80.27412 27 ft 5 kts 267°
2026-05-05 13:49 25.79991 -80.27402 27 ft 4 kts 267°
2026-05-05 13:51 25.79991 -80.27413 27 ft 3 kts 267°
2026-05-05 13:51 25.79990 -80.27445 27 ft 5 kts 271°
2026-05-05 13:52 25.80006 -80.27485 23 ft 6 kts 313°
2026-05-05 13:52 25.80044 -80.27497 25 ft 5 kts 344°
2026-05-05 13:52 25.80065 -80.27527 22 ft 5 kts 286°
2026-05-05 13:52 25.80066 -80.27575 21 ft 8 kts 270°
2026-05-05 13:53 25.80065 -80.27640 20 ft 9 kts 267°
2026-05-05 13:53 25.80061 -80.27715 21 ft 10 kts 268°
2026-05-05 13:53 25.80058 -80.27809 18 ft 14 kts 268°
2026-05-05 13:53 25.80052 -80.27931 15 ft 18 kts 267°
2026-05-05 13:54 25.80046 -80.28074 15 ft 19 kts 267°
2026-05-05 13:54 25.80040 -80.28220 18 ft 19 kts 269°
2026-05-05 13:54 25.80035 -80.28367 19 ft 20 kts 268°
2026-05-05 13:54 25.80028 -80.28523 20 ft 20 kts 267°
2026-05-05 13:55 25.80022 -80.28673 29 ft 19 kts 267°
2026-05-05 13:55 25.80016 -80.28832 27 ft 23 kts 267°
2026-05-05 13:55 25.80007 -80.29023 28 ft 27 kts 267°
2026-05-05 13:55 25.79997 -80.29236 25 ft 28 kts 267°
2026-05-05 13:56 25.79990 -80.29457 18 ft 30 kts 268°
2026-05-05 13:56 25.79981 -80.29670 18 ft 16 kts 267°
2026-05-05 13:56 25.79977 -80.29769 17 ft 13 kts 267°
2026-05-05 13:56 25.79972 -80.29872 16 ft 14 kts 267°
2026-05-05 13:57 25.79971 -80.29900 15 ft 0 kts 267°
2026-05-05 13:58 25.79970 -80.29911 11 ft 6 kts 267°
2026-05-05 13:58 25.79967 -80.29996 15 ft 14 kts 267°
2026-05-05 13:59 25.80054 -80.30124 18 ft 9 kts 13°
2026-05-05 13:59 25.80073 -80.30075 17 ft 3 kts 88°
2026-05-05 14:00 25.80098 -80.29482 18 ft 93 kts 88°
2026-05-05 14:00 25.80121 -80.28925 29 ft 126 kts 87°
2026-05-05 14:00 25.80177 -80.27345 114 ft 174 kts 85°
2026-05-05 14:00 25.80187 -80.25995 643 ft 178 kts 92°
2026-05-05 14:01 25.79919 -80.24653 1270 ft 181 kts 109°
2026-05-05 14:01 25.79366 -80.23329 1488 ft 196 kts 115°
2026-05-05 14:01 25.78708 -80.21929 1588 ft 214 kts 116°
2026-05-05 14:01 25.77965 -80.20411 1741 ft 232 kts 115°
2026-05-05 14:02 25.77185 -80.18779 2006 ft 247 kts 116°
2026-05-05 14:02 25.76344 -80.17065 2343 ft 259 kts 117°
2026-05-05 14:02 25.75463 -80.15288 2774 ft 266 kts 117°
2026-05-05 14:02 25.74565 -80.13479 3294 ft 270 kts 117°
2026-05-05 14:03 25.73666 -80.11644 3815 ft 271 kts 116°
2026-05-05 14:03 25.72915 -80.09713 4342 ft 275 kts 111°
2026-05-05 14:03 25.72245 -80.07723 4903 ft 277 kts 110°
2026-05-05 14:03 25.71584 -80.05705 5414 ft 280 kts 110°
2026-05-05 14:04 25.70914 -80.03663 5928 ft 283 kts 110°
2026-05-05 14:04 25.70236 -80.01604 6456 ft 287 kts 111°
2026-05-05 14:04 25.69545 -79.99513 6936 ft 291 kts 111°
2026-05-05 14:04 25.68842 -79.97391 7438 ft 295 kts 111°
2026-05-05 14:05 25.68131 -79.95246 7969 ft 298 kts 111°
2026-05-05 14:05 25.67410 -79.93076 8509 ft 302 kts 111°
2026-05-05 14:05 25.66680 -79.90876 9060 ft 306 kts 112°
2026-05-05 14:05 25.65939 -79.88649 9597 ft 310 kts 112°
2026-05-05 14:06 25.65188 -79.86391 10094 ft 315 kts 112°
2026-05-05 14:06 25.64416 -79.84074 10371 ft 327 kts 112°
2026-05-05 14:06 25.63609 -79.81655 10605 ft 341 kts 112°
2026-05-05 14:06 25.62771 -79.79142 10825 ft 354 kts 112°
2026-05-05 14:07 25.61901 -79.76532 11021 ft 367 kts 112°
2026-05-05 14:07 25.61000 -79.73835 11225 ft 379 kts 112°
2026-05-05 14:07 25.60073 -79.71059 11419 ft 390 kts 112°
2026-05-05 14:07 25.59081 -79.68231 11690 ft 397 kts 114°
2026-05-05 14:08 25.58057 -79.65417 12030 ft 401 kts 114°
2026-05-05 14:08 25.57006 -79.62541 12393 ft 404 kts 114°
2026-05-05 14:08 25.55948 -79.59649 12809 ft 407 kts 114°
2026-05-05 14:08 25.54881 -79.56735 13206 ft 409 kts 114°
2026-05-05 14:09 25.53796 -79.53770 13617 ft 411 kts 113°
2026-05-05 14:09 25.52733 -79.50867 13972 ft 414 kts 113°
2026-05-05 14:09 25.51634 -79.47866 14285 ft 417 kts 113°
2026-05-05 14:09 25.50538 -79.44878 14592 ft 420 kts 113°
2026-05-05 14:10 25.49451 -79.41916 14900 ft 423 kts 113°
2026-05-05 14:10 25.48342 -79.38893 15185 ft 426 kts 113°
2026-05-05 14:10 25.47221 -79.35843 15495 ft 429 kts 113°
2026-05-05 14:10 25.46095 -79.32782 15801 ft 431 kts 113°
2026-05-05 14:11 25.44962 -79.29701 16082 ft 434 kts 113°
2026-05-05 14:11 25.43819 -79.26599 16392 ft 437 kts 113°
2026-05-05 14:11 25.42670 -79.23480 16681 ft 439 kts 113°
2026-05-05 14:11 25.41512 -79.20340 16965 ft 442 kts 112°
2026-05-05 14:12 25.40348 -79.17187 17246 ft 444 kts 112°
2026-05-05 14:12 25.39176 -79.14012 17527 ft 447 kts 112°
2026-05-05 14:12 25.37998 -79.10827 17804 ft 449 kts 112°
2026-05-05 14:12 25.36811 -79.07619 18078 ft 452 kts 112°
2026-05-05 14:13 25.35617 -79.04393 18347 ft 454 kts 112°
2026-05-05 14:13 25.34418 -79.01157 18582 ft 456 kts 112°
2026-05-05 14:13 25.33213 -78.97906 18817 ft 458 kts 112°
2026-05-05 14:13 25.32002 -78.94646 19058 ft 460 kts 112°
2026-05-05 14:14 25.30785 -78.91369 19293 ft 461 kts 112°
2026-05-05 14:14 25.29565 -78.88086 19523 ft 463 kts 112°
2026-05-05 14:14 25.28337 -78.84787 19756 ft 465 kts 112°
2026-05-05 14:14 25.27105 -78.81478 19978 ft 467 kts 112°
2026-05-05 14:15 25.25869 -78.78160 20207 ft 468 kts 112°
2026-05-05 14:15 25.24627 -78.74828 20426 ft 470 kts 112°
2026-05-05 14:15 25.23377 -78.71480 20658 ft 472 kts 112°
2026-05-05 14:15 25.22125 -78.68128 20877 ft 473 kts 113°
2026-05-05 14:16 25.20868 -78.64764 21115 ft 474 kts 113°
2026-05-05 14:16 25.19607 -78.61394 21332 ft 476 kts 113°
2026-05-05 14:16 25.18339 -78.58016 21604 ft 476 kts 114°
2026-05-05 14:16 25.17465 -78.55799 21734 ft 477 kts 115°
2026-05-05 14:17 25.15655 -78.51369 22000 ft 479 kts 115°
2026-05-05 14:17 25.14274 -78.48012 22214 ft 481 kts 115°
2026-05-05 14:17 25.12890 -78.44645 22410 ft 483 kts 115°
2026-05-05 14:17 25.11498 -78.41260 22623 ft 485 kts 115°
2026-05-05 14:18 25.10107 -78.37874 22829 ft 486 kts 115°
2026-05-05 14:18 25.08706 -78.34469 23041 ft 488 kts 115°
2026-05-05 14:18 25.07303 -78.31058 23246 ft 489 kts 115°
2026-05-05 14:18 25.05895 -78.27637 23447 ft 491 kts 115°
2026-05-05 14:19 25.04941 -78.25319 23580 ft 492 kts 115°
2026-05-05 14:19 25.03523 -78.21879 23779 ft 493 kts 115°
2026-05-05 14:19 25.02101 -78.18431 23945 ft 495 kts 115°
2026-05-05 14:19 25.00674 -78.14974 24121 ft 496 kts 115°
2026-05-05 14:20 24.99242 -78.11507 24299 ft 497 kts 115°
2026-05-05 14:20 24.97825 -78.08081 24483 ft 499 kts 115°
2026-05-05 14:20 24.96385 -78.04599 24666 ft 500 kts 115°
2026-05-05 14:20 24.94939 -78.01108 24845 ft 501 kts 115°
2026-05-05 14:21 24.93489 -77.97610 25020 ft 503 kts 115°
2026-05-05 14:21 24.92036 -77.94105 25228 ft 503 kts 115°
2026-05-05 14:21 24.90581 -77.90599 25445 ft 504 kts 115°
2026-05-05 14:21 24.89121 -77.87085 25633 ft 505 kts 115°
2026-05-05 14:22 24.87656 -77.83562 25797 ft 507 kts 115°
2026-05-05 14:22 24.86186 -77.80029 25981 ft 508 kts 115°
2026-05-05 14:22 24.84711 -77.76486 26166 ft 510 kts 115°
2026-05-05 14:22 24.83230 -77.72932 26346 ft 511 kts 115°
2026-05-05 14:23 24.81748 -77.69379 26507 ft 512 kts 115°
2026-05-05 14:23 24.80258 -77.65809 26707 ft 513 kts 115°
2026-05-05 14:23 24.78766 -77.62239 26888 ft 514 kts 115°
2026-05-05 14:23 24.77271 -77.58662 27070 ft 516 kts 115°
2026-05-05 14:24 24.75769 -77.55072 27286 ft 516 kts 115°
2026-05-05 14:24 24.74231 -77.51499 27458 ft 517 kts 117°
2026-05-05 14:24 24.72637 -77.47948 27630 ft 519 kts 117°
2026-05-05 14:24 24.71011 -77.44403 27804 ft 520 kts 118°
2026-05-05 14:25 24.69371 -77.40853 27986 ft 521 kts 118°
2026-05-05 14:25 24.67725 -77.37294 28141 ft 523 kts 118°
2026-05-05 14:25 24.66079 -77.33726 28309 ft 524 kts 118°
2026-05-05 14:25 24.64432 -77.30146 28490 ft 525 kts 117°
2026-05-05 14:26 24.62785 -77.26558 28654 ft 527 kts 117°
2026-05-05 14:26 24.61134 -77.22960 28812 ft 528 kts 117°
2026-05-05 14:26 24.59482 -77.19359 29060 ft 527 kts 118°
2026-05-05 14:26 24.57830 -77.15760 29227 ft 528 kts 118°
2026-05-05 14:27 24.56173 -77.12153 29371 ft 530 kts 118°
2026-05-05 14:27 24.54511 -77.08538 29506 ft 531 kts 118°
2026-05-05 14:27 24.52840 -77.04908 29648 ft 532 kts 118°
2026-05-05 14:27 24.51168 -77.01278 29827 ft 533 kts 118°
2026-05-05 14:28 24.49496 -76.97651 30075 ft 532 kts 118°
2026-05-05 14:28 24.47824 -76.94028 30274 ft 532 kts 118°
2026-05-05 14:28 24.46150 -76.90401 30439 ft 532 kts 118°
2026-05-05 14:28 24.44477 -76.86781 30605 ft 532 kts 118°
2026-05-05 14:29 24.42805 -76.83165 30843 ft 530 kts 118°
2026-05-05 14:29 24.41138 -76.79565 31047 ft 529 kts 118°
2026-05-05 14:29 24.39471 -76.75966 31196 ft 530 kts 117°
2026-05-05 14:29 24.37800 -76.72361 31410 ft 530 kts 117°
2026-05-05 14:30 24.36128 -76.68757 31575 ft 530 kts 117°
2026-05-05 14:30 24.34455 -76.65153 31721 ft 531 kts 117°
2026-05-05 14:30 24.32779 -76.61548 31903 ft 531 kts 117°
2026-05-05 14:30 24.31123 -76.57987 32069 ft 531 kts 117°
2026-05-05 14:31 24.29447 -76.54384 32253 ft 531 kts 117°
2026-05-05 14:31 24.27768 -76.50780 32425 ft 531 kts 117°
2026-05-05 14:31 24.26091 -76.47181 32647 ft 530 kts 118°
2026-05-05 14:31 24.24416 -76.43591 32852 ft 529 kts 118°
2026-05-05 14:32 24.22741 -76.40002 33037 ft 529 kts 118°
2026-05-05 14:32 24.21063 -76.36411 33209 ft 530 kts 118°
2026-05-05 14:32 24.19384 -76.32819 33375 ft 530 kts 117°
2026-05-05 14:32 24.17703 -76.29227 33608 ft 530 kts 118°
2026-05-05 14:33 24.16021 -76.25636 33775 ft 530 kts 117°
2026-05-05 14:33 24.14340 -76.22048 33931 ft 530 kts 117°
2026-05-05 14:33 24.12658 -76.18460 34080 ft 530 kts 117°
2026-05-05 14:33 24.10973 -76.14871 34210 ft 530 kts 117°
2026-05-05 14:34 24.09289 -76.11285 34356 ft 530 kts 118°
2026-05-05 14:34 24.07604 -76.07701 34486 ft 529 kts 118°
2026-05-05 14:34 24.05919 -76.04118 34639 ft 529 kts 118°
2026-05-05 14:34 24.04236 -76.00542 34772 ft 529 kts 118°
2026-05-05 14:35 24.02551 -75.96966 34899 ft 529 kts 118°
2026-05-05 14:35 24.00868 -75.93395 35040 ft 528 kts 118°
2026-05-05 14:35 23.99184 -75.89826 35160 ft 528 kts 118°
2026-05-05 14:35 23.97501 -75.86261 35299 ft 528 kts 118°
2026-05-05 14:36 23.95815 -75.82693 35426 ft 528 kts 118°
2026-05-05 14:36 23.94130 -75.79131 35578 ft 527 kts 118°
2026-05-05 14:36 23.92449 -75.75576 35799 ft 525 kts 118°
2026-05-05 14:36 23.90773 -75.72036 35981 ft 524 kts 118°
2026-05-05 14:37 23.89097 -75.68500 36093 ft 524 kts 118°
2026-05-05 14:37 23.87419 -75.64963 36210 ft 524 kts 118°
2026-05-05 14:37 23.85742 -75.61430 36350 ft 524 kts 118°
2026-05-05 14:37 23.84064 -75.57897 36500 ft 524 kts 118°
2026-05-05 14:38 23.82386 -75.54366 36697 ft 523 kts 118°
2026-05-05 14:38 23.80708 -75.50838 36829 ft 523 kts 118°
2026-05-05 14:38 23.79031 -75.47314 36937 ft 523 kts 118°
2026-05-05 14:38 23.77377 -75.43844 37042 ft 523 kts 118°
2026-05-05 14:39 23.74018 -75.36799 37073 ft 522 kts 118°
2026-05-05 14:39 23.70665 -75.29779 37071 ft 521 kts 118°
2026-05-05 14:40 23.67316 -75.22779 37075 ft 521 kts 118°
2026-05-05 14:40 23.63962 -75.15776 37074 ft 521 kts 118°
2026-05-05 14:41 23.60605 -75.08777 37075 ft 521 kts 118°
2026-05-05 14:41 23.57249 -75.01791 37074 ft 519 kts 118°
2026-05-05 14:42 23.53912 -74.94854 37070 ft 516 kts 119°
2026-05-05 14:42 23.50574 -74.87925 37072 ft 516 kts 119°
2026-05-05 14:43 23.47235 -74.81003 37075 ft 516 kts 119°
2026-05-05 14:43 23.43892 -74.74085 37075 ft 516 kts 119°
2026-05-05 14:44 23.40547 -74.67171 37075 ft 516 kts 119°
2026-05-05 14:44 23.37199 -74.60260 37075 ft 516 kts 119°
2026-05-05 14:45 23.33845 -74.53348 37073 ft 516 kts 119°
2026-05-05 14:45 23.30491 -74.46445 37073 ft 516 kts 119°
2026-05-05 14:46 23.27134 -74.39545 37056 ft 516 kts 118°
2026-05-05 14:46 23.23767 -74.32633 37072 ft 517 kts 119°
2026-05-05 14:47 23.20408 -74.25748 37075 ft 515 kts 119°
2026-05-05 14:47 23.17073 -74.18922 37074 ft 515 kts 119°
2026-05-05 14:48 23.13712 -74.12054 37071 ft 515 kts 119°
2026-05-05 14:48 23.10350 -74.05190 37071 ft 515 kts 119°
2026-05-05 14:49 23.06986 -73.98333 37076 ft 514 kts 119°
2026-05-05 14:49 23.03629 -73.91500 37074 ft 512 kts 119°
2026-05-05 14:50 23.00278 -73.84688 37073 ft 511 kts 120°
2026-05-05 14:50 22.96924 -73.77882 37072 ft 512 kts 120°
2026-05-05 14:51 22.93565 -73.71073 37072 ft 512 kts 120°
2026-05-05 14:51 22.90205 -73.64270 37079 ft 512 kts 120°
2026-05-05 14:52 22.86842 -73.57473 37080 ft 512 kts 119°
2026-05-05 14:52 22.83461 -73.50646 37078 ft 515 kts 119°
2026-05-05 14:53 22.80067 -73.43803 37078 ft 515 kts 119°
2026-05-05 14:53 22.76670 -73.36964 37079 ft 515 kts 119°
2026-05-05 14:54 22.73272 -73.30132 37081 ft 515 kts 119°
2026-05-05 14:54 22.69894 -73.23348 37060 ft 516 kts 120°
2026-05-05 14:55 22.66461 -73.16463 37084 ft 516 kts 120°
2026-05-05 14:55 22.63067 -73.09668 37081 ft 516 kts 120°
2026-05-05 14:56 22.59651 -73.02835 37082 ft 516 kts 120°
2026-05-05 14:56 22.56232 -72.96008 37081 ft 516 kts 120°
2026-05-05 14:57 22.52810 -72.89181 37082 ft 516 kts 120°
2026-05-05 14:57 22.49383 -72.82355 37066 ft 516 kts 120°
2026-05-05 14:58 22.45953 -72.75533 37077 ft 516 kts 120°
2026-05-05 14:58 22.42521 -72.68714 37081 ft 516 kts 120°
2026-05-05 14:59 22.39086 -72.61900 37079 ft 516 kts 120°
2026-05-05 14:59 22.35651 -72.55093 37081 ft 515 kts 120°
2026-05-05 15:00 22.32799 -72.49448 37082 ft 515 kts 120°
2026-05-05 15:00 22.28786 -72.41519 37082 ft 515 kts 120°
2026-05-05 15:01 22.25350 -72.34737 37083 ft 515 kts 120°
2026-05-05 15:01 22.21935 -72.28007 37080 ft 515 kts 120°
2026-05-05 15:02 22.18476 -72.21198 37080 ft 513 kts 120°
2026-05-05 15:02 22.15071 -72.14503 37079 ft 512 kts 120°
2026-05-05 15:03 22.11645 -72.07779 37080 ft 511 kts 120°
2026-05-05 15:03 22.08196 -72.01015 37069 ft 511 kts 120°
2026-05-05 15:04 22.04785 -71.94334 37074 ft 506 kts 120°
2026-05-05 15:04 22.01413 -71.87740 37074 ft 505 kts 120°
2026-05-05 15:05 21.96337 -71.77830 37077 ft 503 kts 120°
2026-05-05 15:06 21.93503 -71.72305 37078 ft 503 kts 120°
2026-05-05 15:06 21.90119 -71.65714 37075 ft 503 kts 120°
2026-05-05 15:07 21.86755 -71.59171 37075 ft 503 kts 120°
2026-05-05 15:07 21.83366 -71.52586 37077 ft 503 kts 121°
2026-05-05 15:08 21.79970 -71.45998 37080 ft 503 kts 121°
2026-05-05 15:08 21.76575 -71.39419 37078 ft 503 kts 121°
2026-05-05 15:09 21.73177 -71.32842 37075 ft 503 kts 121°
2026-05-05 15:09 21.69774 -71.26264 37077 ft 503 kts 121°
2026-05-05 15:10 21.66370 -71.19692 37048 ft 505 kts 121°
2026-05-05 15:10 21.62936 -71.13072 37043 ft 508 kts 121°
2026-05-05 15:11 21.59496 -71.06446 37040 ft 508 kts 121°
2026-05-05 15:11 21.55451 -71.00299 37038 ft 503 kts 132°
2026-05-05 15:12 21.50940 -70.94563 37044 ft 503 kts 134°
2026-05-05 15:12 21.46344 -70.88909 37054 ft 502 kts 134°
2026-05-05 15:13 21.41743 -70.83255 37069 ft 504 kts 135°
2026-05-05 15:13 21.37139 -70.77580 37082 ft 504 kts 134°
2026-05-05 15:14 21.32539 -70.71901 37082 ft 504 kts 134°
2026-05-05 15:14 21.27934 -70.66217 37084 ft 505 kts 135°
2026-05-05 15:15 21.23352 -70.60570 37086 ft 506 kts 135°
2026-05-05 15:15 21.18704 -70.54847 37086 ft 506 kts 135°
2026-05-05 15:16 21.14119 -70.49206 37083 ft 505 kts 135°
2026-05-05 15:16 21.09505 -70.43537 37086 ft 505 kts 135°
2026-05-05 15:17 21.04888 -70.37871 37087 ft 505 kts 135°
2026-05-05 15:17 21.00271 -70.32211 37086 ft 505 kts 135°
2026-05-05 15:18 20.95653 -70.26555 37087 ft 505 kts 135°
2026-05-05 15:18 20.91030 -70.20899 37088 ft 505 kts 136°
2026-05-05 15:19 20.86410 -70.15252 37085 ft 504 kts 136°
2026-05-05 15:19 20.81794 -70.09616 37086 ft 504 kts 136°
2026-05-05 15:20 20.77175 -70.03983 37089 ft 504 kts 136°
2026-05-05 15:20 20.72557 -69.98356 37089 ft 504 kts 136°
2026-05-05 15:21 20.67937 -69.92731 37088 ft 504 kts 136°
2026-05-05 15:21 20.63312 -69.87107 37090 ft 504 kts 136°
2026-05-05 15:22 20.58722 -69.81529 37089 ft 503 kts 136°
2026-05-05 15:22 20.54109 -69.75929 37091 ft 502 kts 136°
2026-05-05 15:23 20.49502 -69.70342 37089 ft 501 kts 136°
2026-05-05 15:23 20.44895 -69.64762 37085 ft 501 kts 136°
2026-05-05 15:24 20.40287 -69.59186 37089 ft 501 kts 136°
2026-05-05 15:24 20.35675 -69.53611 37094 ft 501 kts 136°
2026-05-05 15:25 20.31067 -69.48045 37097 ft 500 kts 136°
2026-05-05 15:25 20.26470 -69.42497 37096 ft 500 kts 136°
2026-05-05 15:26 20.21868 -69.36950 37097 ft 500 kts 136°
2026-05-05 15:26 20.17261 -69.31403 37096 ft 500 kts 136°
2026-05-05 15:27 20.12656 -69.25862 37096 ft 500 kts 136°
2026-05-05 15:27 20.08049 -69.20325 37096 ft 500 kts 136°
2026-05-05 15:28 20.03442 -69.14793 37099 ft 499 kts 136°
2026-05-05 15:28 19.98835 -69.09266 37098 ft 499 kts 136°
2026-05-05 15:29 19.94229 -69.03746 37094 ft 499 kts 136°
2026-05-05 15:29 19.89622 -68.98230 37095 ft 499 kts 136°
2026-05-05 15:30 19.85075 -68.92651 37096 ft 501 kts 133°
2026-05-05 15:30 19.80772 -68.86822 37096 ft 502 kts 131°
2026-05-05 15:31 19.76551 -68.80970 37098 ft 502 kts 131°
2026-05-05 15:31 19.72279 -68.75100 37097 ft 502 kts 131°
2026-05-05 15:32 19.67982 -68.69249 37095 ft 502 kts 132°
2026-05-05 15:32 19.63681 -68.63414 37094 ft 502 kts 132°
2026-05-05 15:33 19.59372 -68.57576 37097 ft 502 kts 132°
2026-05-05 15:33 19.55068 -68.51746 37092 ft 502 kts 131°
2026-05-05 15:34 19.50760 -68.45916 37100 ft 502 kts 132°
2026-05-05 15:34 19.46449 -68.40087 37098 ft 502 kts 132°
2026-05-05 15:35 19.42139 -68.34265 37095 ft 502 kts 131°
2026-05-05 15:35 19.37828 -68.28447 37096 ft 502 kts 131°
2026-05-05 15:36 19.33515 -68.22633 37100 ft 502 kts 131°
2026-05-05 15:36 19.29198 -68.16819 37098 ft 502 kts 131°
2026-05-05 15:37 19.24912 -68.11050 37096 ft 502 kts 131°
2026-05-05 15:37 19.20596 -68.05248 37097 ft 502 kts 131°
2026-05-05 15:38 19.16276 -67.99447 37102 ft 502 kts 131°
2026-05-05 15:38 19.11956 -67.93650 37099 ft 502 kts 131°
2026-05-05 15:39 19.07633 -67.87855 37089 ft 502 kts 131°
2026-05-05 15:39 19.03309 -67.82067 37098 ft 501 kts 132°
2026-05-05 15:40 18.98461 -67.76848 37101 ft 496 kts 141°
2026-05-05 15:40 18.93336 -67.71969 37101 ft 496 kts 142°
2026-05-05 15:41 18.88160 -67.67157 37101 ft 496 kts 142°
2026-05-05 15:41 18.82984 -67.62346 37101 ft 496 kts 142°
2026-05-05 15:42 18.77817 -67.57527 37099 ft 496 kts 142°
2026-05-05 15:42 18.72652 -67.52706 37092 ft 496 kts 142°
2026-05-05 15:43 18.67481 -67.47882 37100 ft 496 kts 142°
2026-05-05 15:43 18.62310 -67.43062 37099 ft 496 kts 142°
2026-05-05 15:44 18.57137 -67.38245 37098 ft 496 kts 142°
2026-05-05 15:44 18.51999 -67.33464 37099 ft 496 kts 142°
2026-05-05 15:45 18.46827 -67.28656 37099 ft 496 kts 142°
2026-05-05 15:45 18.41652 -67.23850 37100 ft 496 kts 142°
2026-05-05 15:46 18.36471 -67.19042 37099 ft 496 kts 142°
2026-05-05 15:46 18.31292 -67.14240 37098 ft 496 kts 142°
2026-05-05 15:47 18.26112 -67.09440 37096 ft 496 kts 142°
2026-05-05 15:47 18.20929 -67.04643 37095 ft 496 kts 142°
2026-05-05 15:48 18.15742 -66.99845 37103 ft 496 kts 142°
2026-05-05 15:48 18.10560 -66.95056 37100 ft 496 kts 142°
2026-05-05 15:49 18.05374 -66.90266 37093 ft 496 kts 142°
2026-05-05 15:49 18.00187 -66.85482 37098 ft 496 kts 141°
2026-05-05 15:50 17.94997 -66.80697 37097 ft 496 kts 141°
2026-05-05 15:50 17.89815 -66.75922 37095 ft 495 kts 141°
2026-05-05 15:51 17.84633 -66.71152 37093 ft 495 kts 141°
2026-05-05 15:51 17.79447 -66.66382 37094 ft 495 kts 141°
2026-05-05 15:52 17.74264 -66.61620 37093 ft 495 kts 141°
2026-05-05 15:52 17.69076 -66.56856 37091 ft 495 kts 141°
2026-05-05 15:53 17.63893 -66.52100 37091 ft 495 kts 141°
2026-05-05 15:53 17.58707 -66.47347 37091 ft 495 kts 141°
2026-05-05 15:54 17.54397 -66.43398 37092 ft 495 kts 141°
2026-05-05 15:54 17.49216 -66.38654 37089 ft 495 kts 141°
2026-05-05 15:55 17.44036 -66.33916 37092 ft 495 kts 141°
2026-05-05 15:55 17.38853 -66.29179 37091 ft 495 kts 141°
2026-05-05 15:56 17.33669 -66.24445 37088 ft 495 kts 141°
2026-05-05 15:56 17.28482 -66.19711 37089 ft 494 kts 141°
2026-05-05 15:57 17.23302 -66.14988 37089 ft 494 kts 141°
2026-05-05 15:57 17.18121 -66.10267 37086 ft 494 kts 141°
2026-05-05 15:58 17.12942 -66.05551 37085 ft 494 kts 141°
2026-05-05 15:58 17.07762 -66.00839 37088 ft 494 kts 141°
2026-05-05 15:59 17.02580 -65.96128 37090 ft 494 kts 141°
2026-05-05 15:59 16.97393 -65.91417 37085 ft 494 kts 141°
2026-05-05 16:00 16.92244 -65.86742 37089 ft 494 kts 141°
2026-05-05 16:00 16.87059 -65.82040 37086 ft 493 kts 140°
2026-05-05 16:01 16.81878 -65.77344 37086 ft 493 kts 140°
2026-05-05 16:01 16.76697 -65.72652 37083 ft 493 kts 140°
2026-05-05 16:02 16.71516 -65.67964 37083 ft 493 kts 140°
2026-05-05 16:02 16.66334 -65.63278 37083 ft 493 kts 140°
2026-05-05 16:03 16.61152 -65.58595 37083 ft 493 kts 140°
2026-05-05 16:03 16.55964 -65.53910 37083 ft 494 kts 140°
2026-05-05 16:04 16.50772 -65.49226 37083 ft 493 kts 140°
2026-05-05 16:04 16.45583 -65.44548 37083 ft 493 kts 141°
2026-05-05 16:05 16.40394 -65.39872 37083 ft 494 kts 141°
2026-05-05 16:05 16.35230 -65.35224 37083 ft 494 kts 141°
2026-05-05 16:06 16.30033 -65.30548 37083 ft 494 kts 141°
2026-05-05 16:06 16.24837 -65.25877 37084 ft 494 kts 140°
2026-05-05 16:07 16.19606 -65.21178 37077 ft 493 kts 140°
2026-05-05 16:07 16.14439 -65.16540 37083 ft 494 kts 140°
2026-05-05 16:08 16.09233 -65.11870 37081 ft 494 kts 140°
2026-05-05 16:08 16.04035 -65.07210 37080 ft 493 kts 140°
2026-05-05 16:09 15.98839 -65.02556 37083 ft 493 kts 140°
2026-05-05 16:09 15.93640 -64.97902 37086 ft 494 kts 140°
2026-05-05 16:10 15.88438 -64.93249 37080 ft 493 kts 140°
2026-05-05 16:10 15.83229 -64.88594 37075 ft 495 kts 140°
2026-05-05 16:11 15.78014 -64.83936 37078 ft 494 kts 140°
2026-05-05 16:12 15.67633 -64.74672 37080 ft 495 kts 140°
2026-05-05 16:13 15.54554 -64.63021 37079 ft 496 kts 140°
2026-05-05 16:13 15.49329 -64.58372 37077 ft 494 kts 140°
2026-05-05 16:14 15.38901 -64.49104 37077 ft 495 kts 140°
2026-05-05 16:15 15.28442 -64.39819 37072 ft 493 kts 140°
2026-05-05 16:16 15.18048 -64.30606 37072 ft 492 kts 140°
2026-05-05 16:17 15.10225 -64.23680 37069 ft 494 kts 140°
2026-05-05 16:18 15.02357 -64.16721 37073 ft 497 kts 140°
2026-05-05 16:19 14.93812 -64.10750 37073 ft 495 kts 149°
2026-05-05 16:19 14.84947 -64.05259 37068 ft 495 kts 149°
2026-05-05 16:20 14.73162 -63.97986 37067 ft 494 kts 149°
2026-05-05 16:22 14.58376 -63.88831 37067 ft 494 kts 149°
2026-05-05 16:23 14.46590 -63.81545 37064 ft 495 kts 149°
2026-05-05 16:23 14.37741 -63.76082 37065 ft 495 kts 149°
2026-05-05 16:24 14.31839 -63.72441 37059 ft 492 kts 149°
2026-05-05 16:25 14.23013 -63.67000 37063 ft 494 kts 149°
2026-05-05 16:25 14.14144 -63.61537 37061 ft 494 kts 149°
2026-05-05 16:26 14.02369 -63.54298 37068 ft 492 kts 149°
2026-05-05 16:27 13.96490 -63.50687 37064 ft 493 kts 149°
2026-05-05 16:27 13.90579 -63.47058 37065 ft 494 kts 149°
2026-05-05 16:28 13.84686 -63.43443 37065 ft 492 kts 149°
2026-05-05 16:28 13.78813 -63.39842 37061 ft 490 kts 149°
2026-05-05 16:29 13.72944 -63.36246 37061 ft 491 kts 149°
2026-05-05 16:29 13.67054 -63.32639 37068 ft 494 kts 148°
2026-05-05 16:30 13.61200 -63.29055 37064 ft 492 kts 149°
2026-05-05 16:30 13.55334 -63.25467 37061 ft 489 kts 149°
2026-05-05 16:31 13.49477 -63.21887 37064 ft 491 kts 149°
2026-05-05 16:31 13.43600 -63.18296 37062 ft 492 kts 148°
2026-05-05 16:32 13.37703 -63.14695 37067 ft 492 kts 148°
2026-05-05 16:32 13.31822 -63.11106 37063 ft 491 kts 149°
2026-05-05 16:33 13.25957 -63.07530 37065 ft 491 kts 148°
2026-05-05 16:33 13.20073 -63.03942 37063 ft 493 kts 148°
2026-05-05 16:34 13.14158 -63.00336 37065 ft 495 kts 149°
2026-05-05 16:34 13.08258 -62.96742 37063 ft 493 kts 148°
2026-05-05 16:35 13.02371 -62.93157 37060 ft 491 kts 148°
2026-05-05 16:35 12.96484 -62.89575 37058 ft 492 kts 149°
2026-05-05 16:36 12.90583 -62.85987 37060 ft 495 kts 148°
2026-05-05 16:36 12.84706 -62.82414 37058 ft 493 kts 148°
2026-05-05 16:37 12.78811 -62.78833 37060 ft 491 kts 149°
2026-05-05 16:37 12.72932 -62.75264 37061 ft 492 kts 148°
2026-05-05 16:38 12.67040 -62.71689 37063 ft 493 kts 148°
2026-05-05 16:38 12.61129 -62.68104 37061 ft 494 kts 148°
2026-05-05 16:39 12.55222 -62.64523 37058 ft 493 kts 148°
2026-05-05 16:39 12.49333 -62.60956 37056 ft 490 kts 148°
2026-05-05 16:40 12.43447 -62.57392 37058 ft 492 kts 149°
2026-05-05 16:40 12.37542 -62.53818 37060 ft 495 kts 148°
2026-05-05 16:41 12.31619 -62.50236 37056 ft 493 kts 148°
2026-05-05 16:41 12.25722 -62.46671 37056 ft 492 kts 148°
2026-05-05 16:42 12.19831 -62.43112 37053 ft 491 kts 148°
2026-05-05 16:42 12.14933 -62.40153 37056 ft 492 kts 148°
2026-05-05 16:43 12.08071 -62.36011 37055 ft 494 kts 148°
2026-05-05 16:43 12.02164 -62.32448 37053 ft 493 kts 148°
2026-05-05 16:44 11.97221 -62.29467 37055 ft 491 kts 148°
2026-05-05 16:44 11.91334 -62.25919 37056 ft 492 kts 148°
2026-05-05 16:45 11.85478 -62.22392 37053 ft 492 kts 148°
2026-05-05 16:45 11.79570 -62.18834 37056 ft 493 kts 148°
2026-05-05 16:46 11.73662 -62.15279 37054 ft 493 kts 148°
2026-05-05 16:46 11.67757 -62.11726 37053 ft 492 kts 148°
2026-05-05 16:47 11.61864 -62.08184 37054 ft 492 kts 148°
2026-05-05 16:47 11.55963 -62.04637 37051 ft 493 kts 148°
2026-05-05 16:48 11.50052 -62.01087 37052 ft 493 kts 148°
2026-05-05 16:48 11.44147 -61.97542 37051 ft 492 kts 148°
2026-05-05 16:49 11.38246 -61.94001 37050 ft 492 kts 148°
2026-05-05 16:49 11.32345 -61.90461 37050 ft 492 kts 148°
2026-05-05 16:50 11.26439 -61.86921 37048 ft 492 kts 148°
2026-05-05 16:50 11.20533 -61.83382 37047 ft 492 kts 148°
2026-05-05 16:51 11.14631 -61.79847 37048 ft 492 kts 148°
2026-05-05 16:51 11.08729 -61.76315 37047 ft 492 kts 148°
2026-05-05 16:52 11.02823 -61.72781 37045 ft 492 kts 148°
2026-05-05 16:52 10.96920 -61.69251 37045 ft 492 kts 148°
2026-05-05 16:53 10.91014 -61.65721 37042 ft 492 kts 148°
2026-05-05 16:53 10.85108 -61.62192 37042 ft 492 kts 148°
2026-05-05 16:54 10.79199 -61.58662 37043 ft 492 kts 148°
2026-05-05 16:54 10.73290 -61.55135 37047 ft 493 kts 148°
2026-05-05 16:55 10.67381 -61.51610 37045 ft 492 kts 148°
2026-05-05 16:55 10.61512 -61.48110 37046 ft 492 kts 148°
2026-05-05 16:56 10.55609 -61.44590 37047 ft 492 kts 148°
2026-05-05 16:56 10.49711 -61.41050 37044 ft 491 kts 145°
2026-05-05 16:57 10.44594 -61.36534 37040 ft 487 kts 130°
2026-05-05 16:57 10.40227 -61.31273 37042 ft 487 kts 127°
2026-05-05 16:58 10.36005 -61.25872 37042 ft 488 kts 126°
2026-05-05 16:58 10.31791 -61.20468 37044 ft 489 kts 127°
2026-05-05 16:59 10.27549 -61.15074 37045 ft 489 kts 127°
2026-05-05 16:59 10.23291 -61.09686 37047 ft 488 kts 127°
2026-05-05 17:00 10.19039 -61.04316 37050 ft 488 kts 127°
2026-05-05 17:00 10.14792 -60.98952 37048 ft 488 kts 127°
2026-05-05 17:01 10.10540 -60.93583 37048 ft 488 kts 127°
2026-05-05 17:01 10.06284 -60.88212 37048 ft 489 kts 127°
2026-05-05 17:02 10.02026 -60.82839 37045 ft 488 kts 127°
2026-05-05 17:02 9.97798 -60.77508 37045 ft 488 kts 127°
2026-05-05 17:03 9.93518 -60.72114 37045 ft 487 kts 127°
2026-05-05 17:03 9.89264 -60.66753 37046 ft 488 kts 127°
2026-05-05 17:04 9.85031 -60.61423 37042 ft 489 kts 127°
2026-05-05 17:04 9.80766 -60.56055 37043 ft 489 kts 128°
2026-05-05 17:05 9.76505 -60.50693 37044 ft 488 kts 128°
2026-05-05 17:05 9.72247 -60.45339 37043 ft 487 kts 128°
2026-05-05 17:06 9.67987 -60.39983 37044 ft 489 kts 127°
2026-05-05 17:06 9.63716 -60.34618 37042 ft 489 kts 128°
2026-05-05 17:07 9.59439 -60.29245 37041 ft 490 kts 128°
2026-05-05 17:07 9.55164 -60.23880 37040 ft 489 kts 128°
2026-05-05 17:08 9.50897 -60.18526 37036 ft 487 kts 128°
2026-05-05 17:08 9.46633 -60.13179 37037 ft 489 kts 128°
2026-05-05 17:09 9.42354 -60.07814 37037 ft 490 kts 128°
2026-05-05 17:09 9.38068 -60.02442 37037 ft 491 kts 128°
2026-05-05 17:10 9.33780 -59.97072 37037 ft 490 kts 128°
2026-05-05 17:10 9.29530 -59.91751 37035 ft 489 kts 128°
2026-05-05 17:11 9.25257 -59.86402 37033 ft 489 kts 128°
2026-05-05 17:11 9.20973 -59.81043 37030 ft 490 kts 128°
2026-05-05 17:12 9.16673 -59.75666 37031 ft 492 kts 128°
2026-05-05 17:12 9.12372 -59.70291 37031 ft 490 kts 128°
2026-05-05 17:13 9.08087 -59.64937 37031 ft 489 kts 128°
2026-05-05 17:13 9.03804 -59.59589 37032 ft 490 kts 129°
2026-05-05 17:14 8.99512 -59.54232 37033 ft 490 kts 129°
2026-05-05 17:14 8.95151 -59.48913 37031 ft 493 kts 134°
2026-05-05 17:15 8.89770 -59.44709 37028 ft 488 kts 153°